Weather History for Mountain Home, AR

Change the Weather History Date:

Friday, March 8, 2013

  Actual Average (KHRO) Record (KHRO)
Temperature  
Mean Temperature 45 °F 46 °F  
Max Temperature 57 °F 57 °F 80 °F (1974)
Min Temperature 33 °F 36 °F 6 °F (1996)
Degree Days  
Heating Degree Days 20 19  
Month to date heating degree days 159  
Since 1 July heating degree days 3331  
Cooling Degree Days 0 0  
Month to date cooling degree days 0  
Year to date cooling degree days 0  
Moisture  
Dew Point 30 °F    
Average Humidity 59    
Maximum Humidity 89    
Minimum Humidity 37    
Precipitation  
Precipitation 0.00 in 0.12 in 3.46 in (1994)
Month to date precipitation 0.88  
Year to date precipitation 6.08  
Snow  
Snow 0.00 in 0.10 in 13.00 in (1994)
Month to date snowfall 0.8  
Since 1 July snowfall 10.0  
Snow Depth -    
Sea Level Pressure  
Sea Level Pressure 30.25 in    
Wind  
Wind Speed 8 mph (ESE)    
Max Wind Speed 12 mph    
Max Gust Speed 18 mph    
Visibility 8 miles    
Events      
T = Trace of Precipitation, MM = Missing Value Source: NWS Daily Summary

Daily Weather History Graph

Daily Weather History Graph

Search for Another Location

Airport:

Trip Planner

Search our weather history database for the weather conditions in past years. The results will help you decide how hot, cold, wet, or windy it might be!

Date:

Astronomy

Mar. 08, 2013 Rise Set
Actual Time 6:30 AM CST 6:11 PM CST
Civil Twilight 6:04 AM CST 6:37 PM CST
Nautical Twilight 5:34 AM CST 7:06 PM CST
Astronomical Twilight 5:04 AM CST 7:36 PM CST
Moon 4:10 AM CST (3/8) 3:11 PM CST (3/8)
Length of Visible Light 12h 32m
Length of Day
11h 40m
Waning Crescent, 11% of the Moon is Illuminated
Mar 8
Waning Crescent
Mar 11
New
Mar 19
First Quarter
Mar 27
Full
Apr 2
Last Quarter

Hourly Weather History & Observations

Time (CST) Temp. Windchill Dew Point Humidity Pressure Visibility Wind Dir Wind Speed Gust Speed Precip Events Conditions
12:53 AM 37.9 °F 32.7 °F 30.9 °F 76% 30.29 in 8.0 mi ESE 6.9 mph - N/A   Clear
1:53 AM 37.0 °F 32.4 °F 30.9 °F 79% 30.30 in 7.0 mi ESE 5.8 mph - N/A   Clear
2:53 AM 37.0 °F 31.0 °F 30.9 °F 79% 30.29 in 7.0 mi ESE 8.1 mph - N/A   Clear
3:53 AM 34.0 °F 31.0 °F 30.0 °F 85% 30.29 in 7.0 mi East 3.5 mph - N/A   Clear
4:53 AM 33.1 °F 28.7 °F 30.0 °F 89% 30.30 in 6.0 mi East 4.6 mph - N/A   Clear
5:53 AM 33.1 °F 30.0 °F 30.0 °F 89% 30.33 in 6.0 mi ESE 3.5 mph - N/A   Clear
6:53 AM 34.0 °F 28.0 °F 28.9 °F 82% 30.34 in 6.0 mi ESE 6.9 mph - N/A   Haze
7:53 AM 36.0 °F 31.1 °F 30.0 °F 79% 30.35 in 6.0 mi SSE 5.8 mph - N/A   Haze
8:53 AM 42.1 °F 36.6 °F 30.0 °F 62% 30.33 in 7.0 mi ESE 9.2 mph - N/A   Clear
9:53 AM 46.0 °F 41.0 °F 30.0 °F 54% 30.32 in 8.0 mi ESE 10.4 mph - N/A   Clear
10:53 AM 48.9 °F - 30.0 °F 48% 30.31 in 9.0 mi SE 10.4 mph - N/A   Clear
11:53 AM 52.0 °F - 30.0 °F 43% 30.29 in 9.0 mi ESE 5.8 mph - N/A   Clear
12:53 PM 54.0 °F - 30.0 °F 40% 30.26 in 8.0 mi ESE 8.1 mph - N/A   Clear
1:53 PM 55.9 °F - 30.0 °F 37% 30.25 in 7.0 mi ESE 10.4 mph 16.1 mph N/A   Clear
2:53 PM 57.0 °F - 30.9 °F 37% 30.21 in 7.0 mi East 11.5 mph 16.1 mph N/A   Clear
3:53 PM 55.0 °F - 30.9 °F 40% 30.18 in 8.0 mi East 11.5 mph 18.4 mph N/A   Clear
4:53 PM 54.0 °F - 30.0 °F 40% 30.17 in 9.0 mi ESE 11.5 mph - N/A   Clear
5:53 PM 53.1 °F - 30.0 °F 41% 30.19 in 9.0 mi ESE 9.2 mph - N/A   Partly Cloudy
6:53 PM 51.1 °F - 30.0 °F 44% 30.19 in 10.0 mi SE 11.5 mph 16.1 mph N/A   Scattered Clouds
7:53 PM 50.0 °F - 30.9 °F 48% 30.20 in 10.0 mi SE 10.4 mph - N/A   Partly Cloudy
8:53 PM 48.0 °F - 30.9 °F 52% 30.19 in 10.0 mi SE 8.1 mph 17.3 mph N/A   Clear
9:53 PM 48.0 °F - 32.0 °F 54% 30.19 in 9.0 mi SSE 9.2 mph - N/A   Overcast
10:53 PM 48.0 °F - 32.0 °F 54% 30.17 in 9.0 mi SE 6.9 mph - 0.00 in   Overcast
11:53 PM 48.0 °F - 32.0 °F 54% 30.14 in 9.0 mi SE 8.1 mph - 0.00 in   Overcast